Location: Dumpton Point
(51.3500°N, 1.4433°E)
Time: 09:21:28
(UTC+00:00)

Tiros 1 despin weight - Visible Passes

Search period start: 07 October 2022 00:00
Search period end: 17 October 2022 00:00
Orbit: 591 x 638 km, 48.2° (Epoch: 07 October)

Date Brightness Start Highest point End Pass type
(mag) Time Alt. Az. Time Alt. Az. Time Alt. Az.
07 Oct ? 17:54:34 10° W 17:58:57 51° SSW 18:03:24 10° ESE visible
07 Oct ? 19:36:13 10° W 19:39:52 24° SSW 19:40:56 22° S visible
08 Oct ? 18:09:54 10° W 18:14:09 41° SSW 18:18:27 10° SE visible
08 Oct ? 19:52:06 10° WSW 19:54:51 16° SW 19:55:42 15° SSW visible
09 Oct ? 18:25:18 10° W 18:29:16 30° SSW 18:33:15 10° SE visible
10 Oct ? 18:40:53 10° W 18:44:16 21° SSW 18:47:41 10° SSE visible
11 Oct ? 18:57:02 10° WSW 18:59:10 13° SW 19:01:20 10° SSW visible
13 Oct ? 17:45:33 10° WSW 17:48:35 18° SW 17:51:39 10° S visible
14 Oct ? 18:02:18 10° WSW 18:03:26 11° SW 18:04:35 10° SSW visible
